Weather History for Truth Or Consequences, NM

Change the Weather History Date:

Thursday, March 15, 2012

  Actual Average Record
Temperature  
Mean Temperature 60 °F -  
Max Temperature 75 °F 66 °F 83 °F (2013)
Min Temperature 44 °F 38 °F 30 °F (2005)
Degree Days  
Heating Degree Days 6    
Month to date heating degree days  
Since 1 July heating degree days  
Cooling Degree Days 0    
Month to date cooling degree days  
Year to date cooling degree days  
Growing Degree Days 10 (Base 50)    
Moisture  
Dew Point 6 °F    
Average Humidity 13    
Maximum Humidity 23    
Minimum Humidity 5    
Precipitation  
Precipitation 0.00 in - 0.31 in (1998)
Month to date precipitation  
Year to date precipitation  
Sea Level Pressure  
Sea Level Pressure 29.97 in    
Wind  
Wind Speed 7 mph (SW)    
Max Wind Speed 15 mph    
Max Gust Speed 20 mph    
Visibility 10 miles    
Events      
T = Trace of Precipitation, MM = Missing Value Source: NWS Daily Summary

Daily Weather History Graph

Daily Weather History Graph

Search for Another Location

Airport:

Trip Planner

Search our weather history database for the weather conditions in past years. The results will help you decide how hot, cold, wet, or windy it might be!

Date:

Astronomy

Mar. 15, 2012 Rise Set
Actual Time 7:18 AM MDT 7:17 PM MDT
Civil Twilight 6:53 AM MDT 7:42 PM MDT
Nautical Twilight 6:25 AM MDT 8:10 PM MDT
Astronomical Twilight 5:56 AM MDT 8:39 PM MDT
Moon 2:31 AM MDT (3/15) 12:54 PM MDT (3/15)
Length of Visible Light 12h 48m
Length of Day
11h 58m
Last Quarter, 42% of the Moon is Illuminated
Mar 15
Last Quarter
Mar 22
New
Mar 30
First Quarter
Apr 6
Full
Apr 13
Last Quarter

Hourly Weather History & Observations

Time (MDT) Temp. Windchill Dew Point Humidity Pressure Visibility Wind Dir Wind Speed Gust Speed Precip Events Conditions
12:53 AM 55.0 °F - 6.1 °F 14% 29.96 in 10.0 mi WSW 6.9 mph - N/A   Clear
1:53 AM 52.0 °F - 6.1 °F 16% 29.96 in 10.0 mi NNE 4.6 mph - N/A   Clear
2:53 AM 50.0 °F - 7.0 °F 18% 29.96 in 10.0 mi WNW 8.1 mph - N/A   Clear
3:53 AM 48.9 °F - 6.1 °F 18% 29.96 in 10.0 mi WNW 10.4 mph - N/A   Clear
4:53 AM 48.9 °F - 7.0 °F 18% 29.96 in 10.0 mi NW 10.4 mph - N/A   Clear
5:53 AM 46.9 °F - 7.0 °F 20% 29.98 in 10.0 mi NNW 10.4 mph - N/A   Clear
6:53 AM 45.0 °F 40.6 °F 8.1 °F 22% 30.01 in 10.0 mi NW 8.1 mph - N/A   Clear
7:53 AM 44.1 °F 40.8 °F 8.1 °F 23% 30.06 in 10.0 mi NW 5.8 mph - N/A   Clear
8:53 AM 51.1 °F - 10.0 °F 19% 30.06 in 10.0 mi Calm Calm - N/A   Clear
9:53 AM 60.1 °F - 9.0 °F 13% 30.05 in 10.0 mi NNE 6.9 mph - N/A   Clear
10:53 AM 64.0 °F - 10.0 °F 12% 30.04 in 10.0 mi NE 5.8 mph - N/A   Clear
11:53 AM 66.9 °F - 10.0 °F 11% 30.03 in 10.0 mi East 5.8 mph - N/A   Clear
12:53 PM 70.0 °F - 8.1 °F 9% 30.00 in 10.0 mi ENE 4.6 mph - N/A   Clear
1:53 PM 71.1 °F - 3.9 °F 7% 29.96 in 10.0 mi Variable 3.5 mph - N/A   Clear
2:53 PM 73.9 °F - 3.9 °F 7% 29.93 in 10.0 mi SE 8.1 mph - N/A   Clear
3:53 PM 75.9 °F - 6.1 °F 7% 29.90 in 10.0 mi South 10.4 mph 16.1 mph N/A   Clear
4:53 PM 75.0 °F - -0.0 °F 5% 29.89 in 10.0 mi SSE 8.1 mph - N/A   Clear
5:53 PM 75.0 °F - -0.0 °F 5% 29.89 in 10.0 mi South 15.0 mph 19.6 mph N/A   Clear
6:53 PM 72.0 °F - 1.0 °F 6% 29.90 in 10.0 mi South 10.4 mph - N/A   Clear
7:53 PM 66.0 °F - 3.0 °F 8% 29.93 in 10.0 mi South 6.9 mph - N/A   Clear
8:53 PM 64.9 °F - 6.1 °F 10% 29.93 in 10.0 mi South 10.4 mph - N/A   Clear
9:53 PM 63.0 °F - 1.9 °F 9% 29.92 in 10.0 mi SSW 9.2 mph - N/A   Clear
10:53 PM 55.9 °F - 3.0 °F 12% 29.94 in 10.0 mi SSW 3.5 mph - N/A   Clear
11:53 PM 48.9 °F - 3.9 °F 16% 29.95 in 10.0 mi WNW 8.1 mph - N/A   Clear